Flag for Norway Weather past 2 weeks in Fevik, Norway

Now
69 °F

Mild.


Feels Like: 69 °F
Forecast: 64 / 75 °F
Wind: 5 mph from North

Location: Torungen Fyr

Current Time: Jul 11, 2014 at 1:23:41 AM

Latest Report: Jul 11, 2014 at 12:00 AM


Visibility: N/A

Pressure: 30.08 "Hg

Humidity: 67%

Dew point: 58 °F

Location of FevikLocation

Historic Weather in Fevik — Graph

°F

Fevik temperature yesterday

Maximum temperature yesterday: 73 °F (at 5:00 PM)
Minimum temperature yesterday: 67 °F (at 6:00 AM)
Average temperature yesterday: 70 °F

Past Weeks' High & Low Weather Summary

 TemperatureHumidityPressure
High73 °F (Jul 10, 5:00 PM)98% (Jul 5, 5:00 AM)30.08 "Hg (Jul 5, 5:00 AM)
Low52 °F (Jun 27, 3:00 AM)46% (Jul 3, 2:00 PM)29.73 "Hg (Jun 29, 8:00 PM)
Average60 °F78%29.90 "Hg
* Reported Midnight between Jun 25 and Jun 26 — Midnight between Jul 10 and Jul 11, Fevik, Weather by CustomWeather, © 2014

Note: Actual official high and low records may vary slightly from our data, if they occured in-between our weather recording intervals... More about our weather records

Advertising

Fevik weather history for previous 24 hours

 ConditionsComfort  
Time TempWeatherWind HumidityBarometerVisibility
12:00 AM
Jul 11
69 °FMild.5 mph67%30.08 "HgN/A
11:00 PM
Jul 10
69 °FMild.5 mph70%30.08 "HgN/A
10:00 PM70 °FMild.6 mph70%30.07 "HgN/A
9:00 PM70 °FMild.6 mph79%30.06 "HgN/A
8:00 PM71 °FMild.7 mph71%30.05 "HgN/A
7:00 PM72 °FMild.7 mph62%30.05 "HgN/A
6:00 PM73 °FMild.7 mph61%30.05 "HgN/A
5:00 PM73 °FMild.7 mph58%30.06 "HgN/A
4:00 PM73 °FMild.8 mph58%30.06 "HgN/A
3:00 PM72 °FMild.9 mph59%30.06 "HgN/A
2:00 PM71 °FMild.9 mph64%30.07 "HgN/A
1:00 PM70 °FMild.10 mph67%30.06 "HgN/A
12:00 PM69 °FMild.10 mph71%30.06 "HgN/A
11:00 AM69 °FMild.10 mph71%30.07 "HgN/A
10:00 AM68 °FMild.10 mph75%30.06 "HgN/A
9:00 AM68 °FMild.10 mph76%30.06 "HgN/A
8:00 AM68 °FMild.10 mph77%30.05 "HgN/A
7:00 AM68 °FMild.9 mph76%30.03 "HgN/A
6:00 AM67 °FMild.7 mph75%30.02 "HgN/A
5:00 AM67 °FMild.7 mph75%30.01 "HgN/A
4:00 AM68 °FMild.7 mph70%30.01 "HgN/A
3:00 AM68 °FMild.7 mph71%30.01 "HgN/A
2:00 AM68 °FMild.7 mph72%30.00 "HgN/A
1:00 AM69 °FMild.6 mph73%30.01 "HgN/A
Weather by CustomWeather, © 2014

See weather overviewHow to use our weather pages